This is the latest recevied weather packets stored in our database for station/object SP3WRO-2. If no packets are shown the sender has not sent any weather packets the latest 10 day(s).
| Time | Temp. | Humidity | Pressure | Rain* | Wind** | Luminosity | Snow |
|---|---|---|---|---|---|---|---|
| 1787740854 | 22.22° C | 59% | 1019.2 hPa | - | - | 770 W/m² | - |
| 1787739953 | 21.67° C | 59% | 1019.4 hPa | - | - | 785 W/m² | - |
| 1787739052 | 21.67° C | 60% | 1019.3 hPa | - | - | 716 W/m² | - |
| 1787738151 | 21.11° C | 60% | 1019.5 hPa | - | - | 717 W/m² | - |
| 1787737250 | 21.67° C | 62% | 1019.5 hPa | - | - | 751 W/m² | - |
| 1787736349 | 21.11° C | 60% | 1019.6 hPa | - | - | 638 W/m² | - |
| 1787735448 | 21.11° C | 64% | 1019.7 hPa | - | - | 609 W/m² | - |
| 1787734547 | 20.56° C | 64% | 1019.8 hPa | - | - | 577 W/m² | - |
| 1787733646 | 20.56° C | 64% | 1019.8 hPa | - | - | 544 W/m² | - |
| 1787732745 | 20° C | 66% | 1019.9 hPa | - | - | 517 W/m² | - |
| 1787731844 | 20° C | 70% | 1019.9 hPa | - | - | 494 W/m² | - |
| 1787730943 | 19.44° C | 69% | 1019.9 hPa | - | - | 459 W/m² | - |
| 1787730041 | 18.89° C | 73% | 1019.8 hPa | - | - | 422 W/m² | - |
| 1787729140 | 18.33° C | 72% | 1019.8 hPa | - | - | 382 W/m² | - |
| 1787728239 | 18.33° C | 72% | 1019.8 hPa | - | - | 340 W/m² | - |
| 1787727339 | 17.78° C | 74% | 1019.7 hPa | - | - | 301 W/m² | - |
| 1787725537 | 16.67° C | 78% | 1019.6 hPa | - | - | 223 W/m² | - |
| 1787724636 | 16.11° C | 79% | 1019.6 hPa | - | - | 199 W/m² | - |
| 1787723735 | 15.56° C | 83% | 1019.6 hPa | - | - | 169 W/m² | - |
| 1787722835 | 15° C | 82% | 1019.6 hPa | - | - | 138 W/m² | - |
| 1787721933 | 14.44° C | 85% | 1019.5 hPa | - | - | 108 W/m² | - |
| 1787721032 | 14.44° C | 86% | 1019.5 hPa | - | - | 81 W/m² | - |
| 1787720132 | 13.33° C | 87% | 1019.5 hPa | - | - | 57 W/m² | - |
| 1787719229 | 12.78° C | 91% | 1019.4 hPa | - | - | 37 W/m² | - |
| 1787718328 | 12.22° C | 94% | 1019.3 hPa | - | - | 20 W/m² | - |
* Rain since midnight (hover to see other rain measurements)
** Current wind speed in m/s (hover to see current wind gust speed)